[[{"header":{"parameterUnit":"m.s-1","parameterCategory":1,"la1":30.2991,"la2":30.254,"lo1":-89.0895,"lo2":-89.0444,"dx":0.0017,"dy":0.0017,"nx":28,"ny":28,"refTime":"2022-11-17T15:00:00:Z","depth":0,"parameterNumber":2,"parameterNumberName":"U-component_of_WINDS"},"data":[0,0,0,0,0,0,0,0,0,0,0,0,0,0,0,0,0,0,0,0,0,0,0,0,0,0,0,0,0,0,0,0,0,0,0,0,0,0,0,0,0,0,0,0,0,0,0,0,0,0,0,0,0,0,0,0,0,0,-5.6946,-5.6946,0,-5.6972,-5.6972,-5.6972,-5.6792,-5.6787,-5.6782,-5.6777,-5.6805,-5.681,-5.6816,0,0,0,0,0,0,0,0,0,0,0,0,0,-5.6741,-5.6745,-5.6946,-5.6946,-5.6946,-5.6972,-5.6972,-5.6972,-5.6793,-5.6786,-5.678,-5.6775,-5.6803,-5.6809,-5.6816,0,0,0,0,0,0,0,0,0,0,0,0,0,-5.6805,-5.6747,-5.6946,-5.686,-5.6852,-5.6972,-5.6972,-5.6972,-5.6794,-5.6786,-5.6779,-5.6772,-5.6801,-5.6809,-5.6817,-5.702,0,0,-5.6842,-5.6846,0,0,0,0,0,0,0,0,-5.6801,-5.6812,-5.6872,-5.6866,-5.6858,-5.6871,-5.691,-5.6989,-5.6796,-5.6816,-5.6777,-5.6768,-5.6833,-5.6838,-5.686,-5.7022,-5.7023,-5.6843,-5.6848,-5.6851,-5.6854,0,0,0,0,0,0,0,-5.6797,-5.681,-5.6956,-5.6873,-5.6864,-5.682,-5.6821,-5.6924,-5.6867,-5.6814,-5.6801,-5.6806,-5.6828,-5.6852,-5.6859,-5.7023,-5.6843,-5.685,-5.6855,-5.6858,-5.7352,-5.736,0,0,0,0,0,0,-5.6804,-5.6808,-5.6955,-5.6957,-5.681,-5.683,-5.683,-5.6874,-5.6865,-5.6857,-5.6813,-5.6798,-5.6842,-5.685,-5.6859,-5.7097,-5.6851,-5.6859,-5.6864,-5.7344,-5.7354,-5.7363,0,0,0,0,0,0,-5.68,-5.6819,-5.6954,-5.6879,-5.6892,-5.6841,-5.6892,-5.6879,-5.6903,-5.6865,-5.6854,-5.6848,-5.6836,-5.6848,-5.6981,-5.7095,-5.6863,-5.687,-5.7335,-5.7347,-5.7359,-5.7574,0,0,0,0,0,0,-5.6795,-5.6819,-5.6896,-5.6882,-5.6897,-5.7077,-5.6899,-5.6885,-5.6918,-5.6898,-5.6895,-5.6887,-5.6831,-5.697,-5.699,-5.7102,-5.6877,-5.7324,-5.734,-5.7355,-5.7556,-5.7592,-5.7622,0,0,0,0,0,-5.6789,-5.6956,-5.69,-5.6919,-5.6992,-5.7083,-5.7092,-5.7024,-5.6928,-5.7004,-5.6979,-5.6887,-5.7079,-5.6985,-5.7006,-5.7123,-5.7317,-5.7336,-5.7354,-5.7542,-5.7585,-5.7622,0,0,0,0,0,0,-5.6985,-5.6952,-5.6891,-5.7058,-5.7075,-5.7053,-5.7148,-5.7072,-5.7117,-5.7097,-5.701,-5.7011,-5.7159,-5.7154,-5.705,-5.7319,-5.7181,-5.7205,-5.7317,-5.7358,-5.7391,-5.7389,-5.6883,0,0,0,0,0,-5.7047,-5.7124,-5.7091,-5.7242,-5.7253,-5.72,-5.7237,-5.7182,-5.7196,-5.7203,-5.7187,-5.7205,-5.7268,-5.7313,-5.7369,-5.7554,-5.7551,-5.7644,-5.7677,-5.7705,-5.7727,-5.7824,-5.7865,-5.7424,-5.7424,-5.7423,0,0,-5.7178,-5.7169,-5.7223,-5.7281,-5.7288,-5.7369,-5.7207,-5.73,-5.7359,-5.7217,-5.7342,-5.7332,-5.7345,-5.7505,-5.7575,-5.7505,-5.7847,-5.7728,-5.775,-5.7757,-5.7847,-5.7889,-5.7926,-5.7436,-5.7434,-5.7432,0,0,-5.7457,-5.7459,-5.7584,-5.7594,-5.7606,-5.7568,-5.7599,-5.7588,-5.7576,-5.77,-5.7594,-5.7663,-5.7776,-5.7789,-5.7811,-5.8095,-5.8012,-5.8116,-5.8289,-5.8385,-5.842,-5.845,-5.8552,-5.8589,-5.8137,-5.8138,-5.8138,0,-5.7619,-5.7737,-5.7659,-5.7759,-5.7788,-5.7661,-5.7788,-5.7801,-5.7831,-5.7854,-5.7775,-5.7913,-5.7913,-5.8074,-5.8144,-5.8165,-5.8197,-5.8117,-5.8421,-5.845,-5.8478,-5.8574,-5.8612,-5.815,-5.8149,-5.8148,-5.8146,0,-5.7934,-5.8018,-5.8118,-5.815,-5.8189,-5.8303,-5.8242,-5.8291,-5.8233,-5.8205,-5.8332,-5.8328,-5.8381,-5.8415,-5.836,-5.8569,-5.8526,-5.8436,-5.8296,-5.8534,-5.8622,-5.8659,-5.8168,-5.8164,-5.816,-5.8157,0,0,-5.834,-5.8326,-5.8364,-5.8377,-5.838,-5.8443,-5.855,-5.8601,-5.8646,-5.867,-5.8758,-5.8855,-5.8772,-5.8797,-5.8741,-5.8825,-5.9051,-5.8724,-5.8723,-5.8786,-5.9282,-5.9351,-5.9394,-5.8995,-5.9002,-5.9007,-5.9281,0,-5.8613,-5.8795,-5.8728,-5.8915,-5.8991,-5.8871,-5.8964,-5.8977,-5.8952,-5.9013,-5.8986,-5.9057,-5.894,-5.8954,-5.9032,-5.9007,-5.9149,-5.8986,-5.9077,-5.9081,-5.9078,-5.9441,-5.9514,-5.9772,-5.9315,-5.9321,-5.9325,0,-5.8957,-5.8995,-5.919,-5.9179,-5.9208,-5.9293,-5.9335,-5.9395,-5.9406,-5.9382,-5.941,-5.9336,-5.944,-5.93,-5.9442,-5.9332,-5.9365,-5.9358,-5.9366,-5.9373,-5.9218,-5.9458,-5.9853,-5.9893,-5.9379,-5.9374,-5.937,0,-5.9235,-5.9334,-5.9463,-5.9478,-5.9468,-5.9531,-5.953,-5.9533,-5.9568,-5.9604,-5.9626,-5.9675,-5.9702,-5.9741,-5.9682,-5.9585,-5.9833,-5.9687,-5.9816,-5.9818,-5.9875,-5.9873,-6.0282,-5.9895,-5.9895,-5.9894,-5.9893,0,-5.9548,-5.9672,-5.9588,-5.9668,-5.9803,-5.9723,-5.986,-5.9845,-5.9849,-5.9924,-5.9822,-5.9895,-5.9812,-5.9877,-5.9831,-5.9956,-5.9969,-5.9953,-5.9939,-5.9963,-5.9965,-5.9984,-5.9965,-5.9904,-5.9902,-5.99,-5.9898,0,-5.9881,-5.983,-5.9963,-5.9942,-5.994,-6.0041,-6.0023,-6.0096,-6.0063,-6.016,-6.0177,-6.0128,-6.0198,-6.0143,-6.0212,-6.0181,-6.0347,-6.0307,-6.0344,-6.0333,-6.0465,-6.0454,-6.0902,-6.0957,-6.0535,-6.0539,-6.0542,0,-6.0085,-6.0178,-6.0167,-6.0209,-6.0215,-6.0285,-6.032,-6.0245,-6.0286,-6.0304,-6.0376,-6.0437,-6.0483,-6.0601,-6.0571,-6.0623,-6.0585,-6.0738,-6.0592,-6.0613,-6.0588,-6.0584,-6.0593,-6.0769,-6.0774,-6.0778,-6.0781,0,-6.0453,-6.0422,-6.0477,-6.0523,-6.0568,-6.06,-6.0625,-6.0665,-6.0589,-6.064,-6.0711,-6.0746,-6.0816,-6.0879,-6.0921,-6.0919,-6.0839,-6.0827,-6.086,-6.0885,-6.0903,-6.0895,-6.0425,-6.0818,-6.0814,-6.0811,-6.0809,-6.0808,-6.0728,-6.0804,-6.0809,-6.0873,-6.0883,-6.0908,-6.0975,-6.0951,-6.1009,-6.106,-6.1012,-6.1098,-6.1105,-6.1152,-6.1161,-6.1226,-6.1163,-6.121,-6.1222,-6.1236,-6.1255,-6.0891,-6.1234,-6.1232,-6.1231,-6.123,-6.123,0,-6.1091,-6.1087,-6.1147,-6.1184,-6.1235,-6.1152,-6.1175,-6.1223,-6.1299,-6.1313,-6.1359,-6.144,-6.15,-6.1475,-6.1527,-6.1585,-6.1549,-6.1601,-6.1597,-6.1598,-6.1308,-6.1275,-6.1629,-6.1629,-6.1629,-6.1629,-6.1629,-6.1629,-6.1286,-6.1411,-6.1381,-6.151,-6.1505,-6.1588,-6.1608,-6.1631,-6.1641,-6.1736,-6.1785,-6.1768,-6.1765,-6.1817,-6.1868,-6.1859,-6.1884,-6.195,-6.1928,-6.1658,-6.1618,-6.1581,-6.1549,-6.1955,-6.1956,-6.2211,-6.2214,-6.2216]},{"header":{"parameterUnit":"m.s-1","parameterCategory":1,"la1":30.2991,"la2":30.254,"lo1":-89.0895,"lo2":-89.0444,"dx":0.0017,"dy":0.0017,"nx":28,"ny":28,"refTime":"2022-11-17T15:00:00:Z","depth":0,"parameterNumber":3,"parameterNumberName":"V-component_of_WINDS"},"data":[0,0,0,0,0,0,0,0,0,0,0,0,0,0,0,0,0,0,0,0,0,0,0,0,0,0,0,0,0,0,0,0,0,0,0,0,0,0,0,0,0,0,0,0,0,0,0,0,0,0,0,0,0,0,0,0,0,0,-4.22,-4.2201,0,-4.2239,-4.2239,-4.224,-4.2208,-4.2206,-4.2205,-4.2204,-4.2241,-4.2243,-4.2245,0,0,0,0,0,0,0,0,0,0,0,0,0,-4.2095,-4.2097,-4.22,-4.2201,-4.2201,-4.2239,-4.2239,-4.224,-4.2208,-4.2206,-4.2205,-4.2203,-4.224,-4.2243,-4.2245,0,0,0,0,0,0,0,0,0,0,0,0,0,-4.2138,-4.2098,-4.22,-4.219,-4.2189,-4.2239,-4.2239,-4.224,-4.2208,-4.2206,-4.2204,-4.2202,-4.2239,-4.2243,-4.2246,-4.2307,0,0,-4.2256,-4.2258,0,0,0,0,0,0,0,0,-4.2135,-4.2142,-4.2191,-4.2191,-4.219,-4.2216,-4.2216,-4.2262,-4.2209,-4.2201,-4.2204,-4.2201,-4.2234,-4.2238,-4.2249,-4.2308,-4.231,-4.2256,-4.2258,-4.226,-4.2261,0,0,0,0,0,0,0,-4.2132,-4.214,-4.2215,-4.2192,-4.2191,-4.2182,-4.2186,-4.2224,-4.2228,-4.2201,-4.2199,-4.2204,-4.2234,-4.2246,-4.225,-4.231,-4.2256,-4.2259,-4.2261,-4.2263,-4.2417,-4.2419,0,0,0,0,0,0,-4.2131,-4.2138,-4.2214,-4.2216,-4.2157,-4.2185,-4.219,-4.221,-4.2228,-4.2229,-4.2206,-4.2203,-4.2242,-4.2246,-4.2251,-4.232,-4.226,-4.2263,-4.2265,-4.2415,-4.2417,-4.242,0,0,0,0,0,0,-4.2129,-4.2138,-4.2213,-4.2176,-4.2185,-4.2189,-4.2212,-4.2212,-4.2224,-4.2231,-4.2231,-4.2218,-4.224,-4.2246,-4.2292,-4.2321,-4.2264,-4.2267,-4.2412,-4.2416,-4.2419,-4.2461,0,0,0,0,0,0,-4.2126,-4.2138,-4.2162,-4.2177,-4.2187,-4.2254,-4.2214,-4.2214,-4.223,-4.2227,-4.2243,-4.2244,-4.2239,-4.2287,-4.2296,-4.2325,-4.227,-4.241,-4.2414,-4.2418,-4.2457,-4.2465,-4.2472,0,0,0,0,0,-4.2122,-4.2172,-4.2163,-4.2172,-4.2218,-4.2256,-4.2262,-4.2256,-4.2233,-4.2256,-4.226,-4.2243,-4.2317,-4.2292,-4.2301,-4.2332,-4.2408,-4.2413,-4.2417,-4.2453,-4.2463,-4.2472,0,0,0,0,0,0,-4.216,-4.2174,-4.2164,-4.2221,-4.2238,-4.2251,-4.228,-4.2267,-4.229,-4.2285,-4.2277,-4.2281,-4.2328,-4.2335,-4.2307,-4.239,-4.2359,-4.2365,-4.2383,-4.2392,-4.24,-4.2396,-4.2273,0,0,0,0,0,-4.2175,-4.2206,-4.2216,-4.2265,-4.2274,-4.2276,-4.2292,-4.2286,-4.2303,-4.2309,-4.2317,-4.2333,-4.2359,-4.2377,-4.2402,-4.2458,-4.246,-4.2484,-4.2491,-4.2497,-4.2502,-4.2529,-4.2539,-4.2435,-4.2435,-4.2435,0,0,-4.2206,-4.2218,-4.2238,-4.2273,-4.2285,-4.2315,-4.2282,-4.2316,-4.2338,-4.2314,-4.2357,-4.2363,-4.238,-4.2431,-4.2453,-4.2438,-4.2532,-4.2503,-4.2508,-4.251,-4.2535,-4.2545,-4.2553,-4.2438,-4.2438,-4.2437,0,0,-4.2277,-4.2291,-4.2331,-4.2343,-4.2362,-4.2363,-4.2372,-4.2387,-4.239,-4.2433,-4.2415,-4.2441,-4.2488,-4.2499,-4.2511,-4.2585,-4.2569,-4.2594,-4.2632,-4.2658,-4.2666,-4.2674,-4.2696,-4.2705,-4.2599,-4.2599,-4.26,0,-4.2312,-4.2358,-4.2353,-4.2388,-4.2402,-4.2383,-4.2423,-4.2435,-4.2461,-4.2471,-4.2454,-4.251,-4.252,-4.2571,-4.2589,-4.2601,-4.2609,-4.259,-4.2666,-4.2673,-4.268,-4.2701,-4.271,-4.2602,-4.2602,-4.2602,-4.2601,0,-4.2399,-4.2431,-4.2462,-4.2486,-4.2505,-4.2542,-4.2541,-4.256,-4.2552,-4.2554,-4.2596,-4.2608,-4.2634,-4.2646,-4.264,-4.2696,-4.2685,-4.2668,-4.2635,-4.2692,-4.2712,-4.272,-4.2606,-4.2605,-4.2604,-4.2603,0,0,-4.2494,-4.2515,-4.2525,-4.2535,-4.2554,-4.2577,-4.2613,-4.2638,-4.2653,-4.2672,-4.2699,-4.2738,-4.2721,-4.2735,-4.2729,-4.2753,-4.2806,-4.2732,-4.2732,-4.2742,-4.2864,-4.2875,-4.2885,-4.2797,-4.2798,-4.28,-4.2862,0,-4.2563,-4.2624,-4.262,-4.2677,-4.2704,-4.2686,-4.2716,-4.273,-4.2732,-4.2755,-4.2758,-4.2784,-4.2762,-4.2769,-4.2792,-4.2795,-4.283,-4.2791,-4.2819,-4.282,-4.2812,-4.2896,-4.2908,-4.2965,-4.287,-4.2871,-4.2872,0,-4.2651,-4.2672,-4.2731,-4.2743,-4.2754,-4.2782,-4.2803,-4.2826,-4.284,-4.284,-4.2855,-4.2845,-4.2878,-4.2848,-4.2892,-4.2865,-4.2877,-4.288,-4.2882,-4.2882,-4.2847,-4.2894,-4.2984,-4.2991,-4.2885,-4.2884,-4.2883,0,-4.2709,-4.2752,-4.2792,-4.2802,-4.2818,-4.2837,-4.2844,-4.2857,-4.2871,-4.289,-4.2898,-4.2921,-4.2932,-4.2949,-4.2945,-4.2924,-4.2989,-4.2959,-4.2987,-4.2987,-4.2999,-4.2997,-4.3088,-4.3012,-4.3012,-4.3012,-4.3012,0,-4.2784,-4.2821,-4.2818,-4.2843,-4.2882,-4.2876,-4.2915,-4.292,-4.2931,-4.2955,-4.2941,-4.2964,-4.2958,-4.298,-4.2977,-4.3011,-4.3018,-4.3017,-4.3015,-4.3016,-4.3016,-4.3021,-4.3015,-4.3014,-4.3014,-4.3013,-4.3013,0,-4.2855,-4.2855,-4.2897,-4.2908,-4.2912,-4.294,-4.2949,-4.2971,-4.2972,-4.3002,-4.3009,-4.3011,-4.3035,-4.3033,-4.3062,-4.3059,-4.3101,-4.3097,-4.3096,-4.3094,-4.3121,-4.3117,-4.3215,-4.3226,-4.3147,-4.3147,-4.3148,0,-4.2901,-4.2928,-4.2942,-4.2957,-4.2965,-4.299,-4.3004,-4.2999,-4.3015,-4.3032,-4.3051,-4.3075,-4.3093,-4.3133,-4.3136,-4.3156,-4.315,-4.3183,-4.3153,-4.3152,-4.3146,-4.3143,-4.3144,-4.3188,-4.3189,-4.3189,-4.319,0,-4.2982,-4.298,-4.3001,-4.3023,-4.304,-4.3056,-4.3071,-4.3084,-4.308,-4.3098,-4.3123,-4.3137,-4.3165,-4.3187,-4.3207,-4.3213,-4.32,-4.32,-4.3207,-4.3207,-4.3204,-4.3202,-4.3108,-4.3197,-4.3196,-4.3196,-4.3195,-4.3195,-4.3039,-4.3061,-4.3073,-4.3097,-4.3107,-4.3121,-4.3141,-4.3145,-4.3166,-4.3188,-4.3184,-4.3211,-4.3223,-4.3247,-4.3255,-4.3275,-4.3263,-4.3274,-4.3276,-4.3278,-4.3279,-4.3204,-4.3279,-4.3279,-4.3279,-4.3279,-4.3279,0,-4.3115,-4.3122,-4.3144,-4.3165,-4.3183,-4.3171,-4.3186,-4.3201,-4.3225,-4.3238,-4.3255,-4.3283,-4.3304,-4.3309,-4.3328,-4.3343,-4.3338,-4.3348,-4.3345,-4.3346,-4.3291,-4.3281,-4.3352,-4.3352,-4.3352,-4.3352,-4.3352,-4.3352,-4.3157,-4.3192,-4.3192,-4.3232,-4.3238,-4.3265,-4.3274,-4.3286,-4.3295,-4.3326,-4.3343,-4.3347,-4.3355,-4.3375,-4.3393,-4.3394,-4.34,-4.3413,-4.3411,-4.3358,-4.3351,-4.3344,-4.3334,-4.3415,-4.3415,-4.3464,-4.3464,-4.3465]}]]